Dati Storici

Data ora Umidita' aria (%) Temperatura aria (°C) Rad globale (W/m²) Gonioanemometro (°) Tacoanemometro (m/s) Pioggia (mm)
25-06-2020 08:10 84.8 % 21.773 48.979 2.325 0 0
25-06-2020 08:00 88.7 % 21.545 5.332 0.655 0 0
25-06-2020 07:50 90.4 % 20.741 13.126 1.959 0 0
25-06-2020 07:40 92.1 % 20.788 7.651 1.363 0 0
25-06-2020 07:30 91.5 % 20.571 6.185 2.034 0 0
25-06-2020 07:20 94.1 % 20.595 14.058 1.158 0 0
25-06-2020 07:10 95.4 % 20.118 339.113 0.398 0 0
25-06-2020 07:00 96.9 % 20.162 38.064 3.245 0 0
25-06-2020 06:50 97.5 % 19.831 23.861 3.001 0 0
25-06-2020 06:40 97.6 % 19.801 40.628 0.899 0 0
25-06-2020 06:30 97.6 % 19.855 40.201 1.926 0 0
25-06-2020 06:20 97.6 % 19.602 66.835 2.074 0 0
25-06-2020 06:10 97.6 % 19.456 10.506 1.251 0 0
25-06-2020 06:00 97.6 % 19.325 17.569 2.102 0 0
25-06-2020 05:50 97.6 % 19.585 14.817 0.006 0 0
25-06-2020 05:40 97.6 % 19.582 26.121 1.196 0 0
25-06-2020 05:30 97.6 % 19.487 13.779 1.027 0 0
25-06-2020 05:20 97.6 % 19.41 11.837 1.095 0 0
25-06-2020 05:10 97.6 % 19.31 21.82 0.692 0 0
25-06-2020 05:00 97.6 % 19.257 299.529 0.004 0 0

I dati sono presentati in modo automatico a scopo informativo. In seguito a verifica i dati possono subire modifiche o essere invalidati e non riportati negli archivi definitivi.